Location: Drocourt
(49.0571°N, 1.7669°E)
Time: 07:03:54
(UTC+00:00)

MINOTAUR 4 R/B - Pass Details

Date: 09 February 2023
Orbit: 447 x 452 km, 98.0° (Epoch: 30 March)

Event Time Altitude Azimuth Distance (km) Brightness Sun altitude
Exits shadow 18:29:38 18° 35° (NE) 1,190 5.7 -14.6°
Maximum altitude 18:31:51 41° 99° (E) 668 4.3 -15.0°
Drops below altitude 10° 18:35:03 10° 172° (S) 1,574 6.6 -15.5°
Sets 18:37:09 0° 179° (S) 2,443 7.7 -15.8°
